Showing default

CSO-3, 63156

Orbit data source: Space-Track

CSO-3, 63156 is a French payload satellite in SSO that was launched on Thu, 06 Mar 2025 UTC via an ARIANE 62 launch vehicle from the French Guiana (FRGUI). Payload-class satellites include a variety of spacecraft equipped with specific instruments for various scientific and technological missions. These include communications satellites like Starlink; space stations such as the ISS; scientific satellites like the Hubble; Earth observation satellites from companies like Planet Labs, Umbra, and HawkEye 360; GPS; miniature CubeSats for education and research; and military/defense satellites.

Loading next visibility...
Identifier
63156, 2025-044A
Orbit
SSO
Last TLE update
4 months ago
Origin
Manufacturer
Airbus/Toulouse
Mission
Operational spacecraft
Bus & Motor
ASTROSAT-100, AOCS
Mass
3,562 kg wet, ~2,500 kg dry
Launch date (UTC)
2025-03-06 (4 months ago)
Launch vehicle
ARIANE 62
Launch site
French Guiana (FRGUI)
Object type
Payload
Rocket body
Debris
Shape & HBR
Unknown
Radar Cross Section
RCS unknown

Expand to show TLE details & history

TLE from 4 months ago
0 CSO-3
1 63156U 25044A   25073.57074855  .00000450  00000-0  17703-3 0  9994
2 63156  98.6061  14.9510 0001899  15.9635 344.1609 14.34023195  1122
Epoch: 2025-03-14T13:41Z
TLE epoch observation values (Epoch: 2025-03-14T13:41:52.674Z)
Latitude
-0.00005°
Longitude
-2.9472°
Altitude
779.944 km
Speed
7.465 km/s
True Right ascension
00h 59m 48s
True Declination
0° 00' 00"
Sunlit
Object was in daylight at epoch
Visualization orbit readout
Latitude
48.07948°
Longitude
102.58675°
Altitude
784.106 km
Speed
7.467 km/s
Apparent Right ascension
08h 01m 37s
Apparent Declination
7° 15' 51"
Sunlit
Object is in daylight
Visualization observer readout
Local Sidereal Time
20:01:18
Azimuth
359.895° N
Elevation
-42.82°
Doppler factor
1
Orbital elements
Apogee altitude
776.808 km
Perigee altitude
774.091 km
Semi-major axis
7,153.586 km
Eccentricity
0.00019
Inclination
98.6061°
RAAN
14.951°
Arg. of periapsis
15.9635°
True anomaly
Unknown
Mean anomaly
344.1609°
Eccentric anomaly
Unknown
Mean motion
3.58722 °/min
Orbital period
100.36 mins
BSTAR
0.00017703
Loading maneuver chart data...
Loading SW <> Apogee altitude chart data...
Loading historical data...
Loading historical data...
Loading historical data...
Loading historical data...
Loading historical data...
Loading historical data...
Loading historical data...
Other satellites on launch #44 in the year 2025 (2025-03-06 UTC)

CSO-3 Visibility forecast

Observer location: undefined°, undefined°

Span
Click to sort rows by Start time (UTC) header in descending order
Start Az.
Max El. time (UTC)
Max El. Az.
Max El.
End time (UTC)
End Az.
8 mins2025-07-08 08:17:40.491Z37.078° NE2025-07-08 08:21:40.491Z103.351° ESE29.829°2025-07-08 08:25:40.491Z160.874° S
7 mins2025-07-08 09:57:40.491Z338.23° N2025-07-08 10:00:40.491Z290.133° WNW24.386°2025-07-08 10:04:40.491Z237.764° WSW
8 mins2025-07-08 19:33:40.491Z137.53° SSE2025-07-08 19:36:40.491Z86.333° E36.151°2025-07-08 19:41:40.491Z359.293° N
5 mins2025-07-08 21:14:40.491Z239.942° WSW2025-07-08 21:16:40.491Z269.118° W18.178°2025-07-08 21:19:40.491Z307.954° NW
4 mins2025-07-09 07:46:40.491Z71.964° E2025-07-09 07:47:40.491Z85.68° E16.26°2025-07-09 07:50:40.491Z125.406° SE
|